• In Belarus
  • List of Countries
  • For 7 days
  • Water Temperature
  • Weather Map
  • Weather Widgets
  • user-avatar
    Login

    Hourly Weather Solden

    Today, 29 May, Friday

    Time Temperature Precipitation Wind Pressure Humidity
    00:00 -3°C° 0 mm 2 mps 584 mmHg 87%
    01:00 -3°C° 0 mm 2 mps 584 mmHg 87%
    02:00 -4°C° 0 mm 2 mps 584 mmHg 87%
    03:00 -4°C° 0 mm 2 mps 584 mmHg 86%
    04:00 -4°C° 0 mm 2 mps 584 mmHg 86%
    05:00 -3°C° 0 mm 2 mps 585 mmHg 80%
    06:00 -2°C° 0 mm 2 mps 585 mmHg 74%
    07:00 +1°C° 0 mm 2 mps 586 mmHg 71%
    08:00 +4°C° 0 mm 1 mps 586 mmHg 61%
    09:00 +5°C° 0 mm 1 mps 587 mmHg 52%
    10:00 +7°C° 0 mm 1 mps 587 mmHg 43%
    11:00 +8°C° 0 mm 1 mps 588 mmHg 42%
    12:00 +9°C° 0 mm 1 mps 588 mmHg 40%
    13:00 +9°C° 0 mm 1 mps 588 mmHg 38%
    14:00 +8°C° 0 mm 2 mps 587 mmHg 39%
    15:00 +8°C° 0 mm 2 mps 587 mmHg 40%
    16:00 +8°C° 0 mm 2 mps 587 mmHg 40%
    17:00 +7°C° 0 mm 2 mps 586 mmHg 50%
    18:00 +6°C° 0 mm 2 mps 585 mmHg 60%
    19:00 +4°C° 0 mm 2 mps 584 mmHg 70%
    20:00 +3°C° 0 mm 1 mps 584 mmHg 76%
    21:00 +2°C° 0 mm 1 mps 583 mmHg 82%
    22:00 0°C° 0 mm 1 mps 582 mmHg 88%
    23:00 0°C° 0 mm 1 mps 582 mmHg 87%

    Tomorrow, 30 May, Saturday

    Time Temperature Precipitation Wind Pressure Humidity
    00:00 0°C° 0 mm 1 mps 582 mmHg 87%
    01:00 0°C° 0 mm 1 mps 582 mmHg 87%
    02:00 -1°C° 0 mm 1 mps 582 mmHg 87%
    03:00 -1°C° 0 mm 1 mps 582 mmHg 87%
    04:00 -1°C° 0 mm 1 mps 581 mmHg 87%
    05:00 0°C° 0 mm 1 mps 582 mmHg 81%
    06:00 +2°C° 0 mm 1 mps 583 mmHg 76%
    07:00 +3°C° 0 mm 0 mps 583 mmHg 70%
    08:00 +5°C° 0 mm 1 mps 584 mmHg 65%
    09:00 +7°C° 0 mm 1 mps 584 mmHg 59%
    10:00 +8°C° 0 mm 1 mps 585 mmHg 54%
    11:00 +9°C° 0.2 mm 1 mps 585 mmHg 55%
    12:00 +9°C° 0.2 mm 1 mps 585 mmHg 55%
    13:00 +10°C° 0.2 mm 1 mps 585 mmHg 56%
    14:00 +9°C° 0.5 mm 1 mps 585 mmHg 60%
    15:00 +8°C° 0.5 mm 2 mps 584 mmHg 65%
    16:00 +7°C° 0.5 mm 2 mps 584 mmHg 69%
    17:00 +6°C° 0.7 mm 2 mps 583 mmHg 74%
    18:00 +5°C° 0.7 mm 2 mps 583 mmHg 79%
    19:00 +5°C° 0.7 mm 1 mps 582 mmHg 85%
    20:00 +3°C° 0.2 mm 1 mps 582 mmHg 86%
    21:00 +2°C° 0.2 mm 1 mps 582 mmHg 88%
    22:00 +1°C° 0.2 mm 1 mps 582 mmHg 90%
    23:00 0°C° 0 mm 1 mps 581 mmHg 90%

    Day after tomorrow, 31 May, Sunday

    Time Temperature Precipitation Wind Pressure Humidity
    00:00 0°C° 0 mm 1 mps 581 mmHg 90%
    01:00 0°C° 0 mm 1 mps 581 mmHg 90%
    02:00 0°C° 0.1 mm 1 mps 581 mmHg 90%
    03:00 -1°C° 0.1 mm 1 mps 581 mmHg 90%
    04:00 -2°C° 0.1 mm 0 mps 581 mmHg 90%
    05:00 -1°C° 0 mm 0 mps 581 mmHg 86%
    06:00 +1°C° 0 mm 0 mps 582 mmHg 82%
    07:00 +2°C° 0 mm 0 mps 582 mmHg 78%
    08:00 +5°C° 0 mm 1 mps 583 mmHg 70%
    09:00 +6°C° 0 mm 1 mps 584 mmHg 61%
    10:00 +8°C° 0 mm 1 mps 585 mmHg 53%
    11:00 +9°C° 0.1 mm 1 mps 585 mmHg 51%
    12:00 +8°C° 0.1 mm 2 mps 585 mmHg 50%
    13:00 +9°C° 0.1 mm 2 mps 585 mmHg 48%
    14:00 +9°C° 0.1 mm 2 mps 585 mmHg 49%
    15:00 +9°C° 0.1 mm 2 mps 585 mmHg 51%
    16:00 +9°C° 0.1 mm 2 mps 585 mmHg 53%
    17:00 +7°C° 0.1 mm 2 mps 584 mmHg 58%
    18:00 +6°C° 0.1 mm 2 mps 584 mmHg 64%
    19:00 +5°C° 0.1 mm 2 mps 583 mmHg 70%
    20:00 +3°C° 0 mm 2 mps 583 mmHg 73%
    21:00 +2°C° 0 mm 2 mps 583 mmHg 77%
    22:00 -1°C° 0 mm 2 mps 582 mmHg 80%
    23:00 +1°C° 0 mm 1 mps 582 mmHg 81%

    1 June, Monday

    Time Temperature Precipitation Wind Pressure Humidity
    00:00 0°C° 0 mm 1 mps 582 mmHg 81%
    01:00 0°C° 0 mm 1 mps 582 mmHg 82%
    02:00 0°C° 0 mm 1 mps 581 mmHg 81%
    03:00 -1°C° 0 mm 1 mps 581 mmHg 81%
    04:00 -1°C° 0 mm 1 mps 581 mmHg 81%
    05:00 +1°C° 0 mm 1 mps 582 mmHg 74%
    06:00 +2°C° 0 mm 0 mps 583 mmHg 68%
    07:00 +5°C° 0 mm 0 mps 584 mmHg 61%
    08:00 +8°C° 0 mm 1 mps 585 mmHg 56%
    09:00 +9°C° 0 mm 1 mps 586 mmHg 51%
    10:00 +11°C° 0 mm 1 mps 587 mmHg 46%
    11:00 +12°C° 0 mm 1 mps 587 mmHg 45%
    12:00 +13°C° 0 mm 1 mps 587 mmHg 44%
    13:00 +14°C° 0 mm 2 mps 587 mmHg 43%
    14:00 +14°C° 0.1 mm 2 mps 587 mmHg 45%
    15:00 +13°C° 0.1 mm 2 mps 587 mmHg 47%
    16:00 +13°C° 0.1 mm 2 mps 587 mmHg 49%
    17:00 +12°C° 0.1 mm 1 mps 586 mmHg 59%
    18:00 +10°C° 0.1 mm 1 mps 586 mmHg 68%
    19:00 +9°C° 0.1 mm 1 mps 585 mmHg 78%
    20:00 +7°C° 0 mm 1 mps 584 mmHg 83%
    21:00 +5°C° 0 mm 1 mps 584 mmHg 88%
    22:00 +4°C° 0 mm 1 mps 583 mmHg 94%
    23:00 +2°C° 0 mm 0 mps 583 mmHg 94%

    2 June, Tuesday

    Time Temperature Precipitation Wind Pressure Humidity
    00:00 +2°C° 0 mm 0 mps 583 mmHg 93%
    01:00 +2°C° 0 mm 0 mps 583 mmHg 93%
    02:00 +2°C° 0 mm 0 mps 582 mmHg 93%
    03:00 +2°C° 0 mm 0 mps 582 mmHg 92%
    04:00 +2°C° 0 mm 0 mps 582 mmHg 92%
    05:00 +3°C° 0 mm 0 mps 583 mmHg 87%
    06:00 +5°C° 0 mm 0 mps 583 mmHg 82%
    07:00 +6°C° 0 mm 0 mps 584 mmHg 78%
    08:00 +9°C° 0 mm 1 mps 585 mmHg 70%
    09:00 +11°C° 0 mm 1 mps 586 mmHg 62%
    10:00 +13°C° 0 mm 1 mps 586 mmHg 54%
    11:00 +13°C° 0.2 mm 1 mps 586 mmHg 54%
    12:00 +13°C° 0.2 mm 2 mps 586 mmHg 54%
    13:00 +14°C° 0.2 mm 2 mps 586 mmHg 54%
    14:00 +13°C° 0.9 mm 2 mps 585 mmHg 60%
    15:00 +12°C° 0.9 mm 2 mps 584 mmHg 66%
    16:00 +12°C° 0.9 mm 2 mps 584 mmHg 72%
    17:00 +10°C° 1.2 mm 2 mps 583 mmHg 78%
    18:00 +9°C° 1.2 mm 1 mps 583 mmHg 83%
    19:00 +8°C° 1.2 mm 1 mps 582 mmHg 89%
    20:00 +7°C° 0.8 mm 1 mps 582 mmHg 91%
    21:00 +6°C° 0.8 mm 1 mps 581 mmHg 92%
    22:00 +5°C° 0.8 mm 1 mps 581 mmHg 94%
    23:00 +5°C° 0.3 mm 1 mps 580 mmHg 95%

    3 June, Wednesday

    Time Temperature Precipitation Wind Pressure Humidity
    00:00 +5°C° 0.3 mm 1 mps 580 mmHg 95%
    01:00 +5°C° 0.3 mm 1 mps 580 mmHg 95%
    02:00 +5°C° 0.1 mm 1 mps 580 mmHg 96%
    03:00 +5°C° 0.1 mm 1 mps 579 mmHg 96%
    04:00 +4°C° 0.1 mm 0 mps 579 mmHg 96%
    05:00 +5°C° 0.2 mm 1 mps 579 mmHg 95%
    06:00 +6°C° 0.2 mm 1 mps 579 mmHg 94%
    07:00 +6°C° 0.2 mm 1 mps 579 mmHg 93%
    08:00 +7°C° 0.4 mm 1 mps 579 mmHg 91%
    09:00 +6°C° 0.4 mm 2 mps 580 mmHg 89%
    10:00 +7°C° 0.4 mm 2 mps 580 mmHg 86%
    11:00 +7°C° 0.4 mm 2 mps 579 mmHg 88%
    12:00 +6°C° 0.4 mm 2 mps 579 mmHg 89%
    13:00 +6°C° 0.4 mm 2 mps 579 mmHg 91%
    14:00 +6°C° 0.5 mm 2 mps 578 mmHg 92%
    15:00 +5°C° 0.5 mm 2 mps 578 mmHg 94%
    16:00 +5°C° 0.5 mm 2 mps 578 mmHg 95%
    17:00 +5°C° 0.2 mm 2 mps 578 mmHg 96%
    18:00 +5°C° 0.2 mm 1 mps 577 mmHg 97%
    19:00 +5°C° 0.2 mm 1 mps 577 mmHg 97%
    20:00 +5°C° 0.2 mm 1 mps 577 mmHg 98%
    21:00 +5°C° 0.2 mm 1 mps 578 mmHg 98%
    22:00 +5°C° 0.2 mm 1 mps 578 mmHg 98%
    23:00 +5°C° 0.1 mm 1 mps 577 mmHg 98%
    Show more